Regional Weather Roundup
Issued by NWS

Home | Current Version | Previous Version | Graphics & Text | Print | Product List | Glossary On
Versions: 1 2 3 4 5 6 7 8 9 10 11 12 13 14 15 16 17 18 19 20 21 22 23 24 25 26 27 28 29 30 31 32 33 34 35 36 37 38 39 40 41 42 43 44 45 46 47 48 49 50
000
ASUS45 KCYS 180510
RWRWY

WYOMING REGIONAL WEATHER ROUNDUP
NATIONAL WEATHER SERVICE CHEYENNE WY
1100 PM MDT THU AUG 17 2017

NOTE:  "FAIR" INDICATES FEW OR NO CLOUDS BELOW 12,000 FEET
WITH NO SIGNIFICANT WEATHER AND/OR OBSTRUCTIONS TO VISIBILITY.

WYZ001-180600-
YELLOWSTONE NATIONAL PARK

CITY           SKY/WX    TMP DP  RH WIND       PRES   REMARKS
LK YELLOWSTONE   N/A     45  39  79 CALM      30.36S
W YELLOWSTONE  NOT AVBL

$$
WYZ002>013-054>058-071-098>099-180600-
NORTHERN WYOMING

CITY           SKY/WX    TMP DP  RH WIND       PRES   REMARKS
JACKSON        FAIR     N/A N/A N/A CALM      30.28R
CODY           FAIR      63  39  41 CALM      30.17R
GREYBULL       FAIR      69  35  28 SW5       30.05R
WORLAND        FAIR      62  43  49 CALM      30.07R
SHERIDAN       FAIR      61  43  51 CALM      30.06S
BUFFALO        FAIR      63  37  38 W8        30.13S
GILLETTE       FAIR      56  45  66 S6        30.07F
HULETT         FAIR      57  45  62 SW8       30.07S
NEWCASTLE      FAIR      52  45  76 E7G16     30.10R

$$
WYZ014>020-022>026-101>103-180600-
CENTRAL WYOMING

CITY           SKY/WX    TMP DP  RH WIND       PRES   REMARKS
BIG PINEY      FAIR      51  31  46 NW10      30.32S
PINEDALE       FAIR      50  36  57 N3        30.34R
DUBOIS         FAIR      54  32  43 MISG      30.31R
LANDER           N/A    N/A N/A N/A MISG      30.17R
RIVERTON       FAIR      67  39  35 E8        30.18R
CASPER         FAIR      58  43  57 NE9       30.16S
DOUGLAS        FAIR      57  48  72 CALM      30.16S

$$
WYZ021-027>030-104>119-180600-
SOUTHERN WYOMING

CITY           SKY/WX    TMP DP  RH WIND       PRES   REMARKS
EVANSTON       FAIR      64  30  27 SW3       30.33R
KEMMERER         N/A     57  32  38 N9        30.34S
FORT BRIDGER   FAIR      62  31  30 SW8       30.34S
ROCK SPRINGS   FAIR      63  31  30 NW7       30.28R
RAWLINS        FAIR      64  28  25 N10       30.24R
SARATOGA       FAIR      59  39  47 SW12      30.27S
LARAMIE        FAIR      57  39  51 SW10      30.26F
CHEYENNE       FAIR      62  44  51 NW5       30.22R
TORRINGTON     FAIR      65  47  52 W3        30.09R
PINE BLUFFS    FAIR      61  48  63 NE5       30.15F

$$



USA.gov is the U.S. government's official web portal to all federal, state and local government web resources and services.